Location: Newark
(33.6333°S, 78.8500°W)
Time: 06:00:37
(UTC+00:00)

Tiros 1 despin weight - Pass Details

Date: 29 September 2019
Orbit: 593 x 643 km, 48.2° (Epoch: 22 October)

Event Time Altitude Azimuth Distance (km) Brightness Sun altitude
Rises 09:11:06 0° 239° (WSW) 2,937 - -22.1°
Reaches altitude 10° 09:13:30 10° 245° (WSW) 2,030 - -21.6°
Maximum altitude 09:17:56 42° 315° (NW) 916 - -20.8°
Exits shadow 09:18:27 40° 334° (NNW) 941 ? -20.7°
Drops below altitude 10° 09:22:20 10° 26° (NNE) 2,028 ? -19.9°
Sets 09:24:45 0° 32° (NNE) 2,933 ? -19.4°
